Weather History for KLOU - October, 2012

Change the Weather History Date:

Sunday, October 28, 2012

  Actual Average Record
Temperature  
Mean Temperature 46 °F 55 °F  
Max Temperature 51 °F 65 °F - ()
Min Temperature 41 °F 45 °F - ()
Degree Days  
Heating Degree Days 19 11  
Month to date heating degree days 219 206  
Since 1 July heating degree days 257 242  
Cooling Degree Days 0 0  
Month to date cooling degree days 18 30  
Year to date cooling degree days 1851 1443  
Moisture  
Dew Point 34 °F    
Average Humidity 61    
Maximum Humidity 76    
Minimum Humidity 46    
Precipitation  
Precipitation 0.00 in 0.10 in - ()
Month to date precipitation 2.55 2.93  
Year to date precipitation 37.63 37.63  
Sea Level Pressure  
Sea Level Pressure 30.08 in    
Wind  
Wind Speed 10 mph (North)    
Max Wind Speed 17 mph    
Max Gust Speed 24 mph    
Visibility 10 miles    
Events      
T = Trace of Precipitation, MM = Missing Value Source: NWS Daily Summary

Daily Weather History Graph

Daily Weather History Graph

Search for Another Location

Airport or City:

Trip Planner

Search our weather history database for the weather conditions in past years. The results will help you decide how hot, cold, wet, or windy it might be!

Date:

Astronomy

Oct. 28, 2012 Rise Set
Actual Time 8:05 AM EDT 6:47 PM EDT
Civil Twilight 7:37 AM EDT 7:14 PM EDT
Nautical Twilight 7:06 AM EDT 7:45 PM EDT
Astronomical Twilight 6:36 AM EDT 8:16 PM EDT
Moon 6:04 PM EDT (10/28) 6:57 AM EDT (10/28)
Length of Visible Light 11h 36m
Length of Day
10h 42m
Waxing Gibbous, 99% of the Moon is Illuminated
Oct 28
Waxing Gibbous
Oct 29
Full
Nov 6
Last Quarter
Nov 13
New
Nov 20
First Quarter

Hourly Weather History & Observations

Time (EDT) Temp. Windchill Dew Point Humidity Pressure Visibility Wind Dir Wind Speed Gust Speed Precip Events Conditions
12:53 AM 48.0 °F - 36.0 °F 63% 30.09 in 10.0 mi NNE 6.9 mph - N/A   Overcast
1:53 AM 46.4 °F 44.3 °F 35.6 °F 66% 30.08 in 10.0 mi North 4.6 mph - N/A   Mostly Cloudy
2:53 AM 45.0 °F 40.1 °F 35.1 °F 68% 30.07 in 10.0 mi NNW 9.2 mph - N/A   Mostly Cloudy
3:53 AM 44.1 °F 38.1 °F 33.1 °F 65% 30.07 in 10.0 mi North 11.5 mph - N/A   Overcast
4:53 AM 43.0 °F 38.2 °F 33.1 °F 68% 30.07 in 10.0 mi North 8.1 mph - N/A   Overcast
5:53 AM 43.0 °F 38.8 °F 34.0 °F 71% 30.07 in 10.0 mi North 6.9 mph - N/A   Overcast
6:53 AM 42.1 °F 37.1 °F 34.0 °F 73% 30.08 in 10.0 mi NNW 8.1 mph - N/A   Overcast
7:53 AM 41.0 °F 35.8 °F 34.0 °F 76% 30.07 in 10.0 mi North 8.1 mph - N/A   Overcast
8:53 AM 42.1 °F 36.6 °F 35.1 °F 76% 30.08 in 10.0 mi North 9.2 mph - N/A   Overcast
9:53 AM 44.1 °F 39.0 °F 35.1 °F 71% 30.09 in 10.0 mi North 9.2 mph - N/A   Overcast
10:53 AM 45.0 °F 39.3 °F 35.1 °F 68% 30.09 in 10.0 mi NNW 11.5 mph 18.4 mph N/A   Overcast
11:53 AM 48.0 °F - 35.1 °F 61% 30.08 in 10.0 mi North 11.5 mph 20.7 mph N/A   Overcast
12:53 PM 48.2 °F - 35.6 °F 62% 30.07 in 10.0 mi NNE 10.4 mph 20.7 mph N/A   Overcast
1:53 PM 50.0 °F - 35.1 °F 57% 30.07 in 10.0 mi North 10.4 mph 17.3 mph N/A   Overcast
2:53 PM 51.1 °F - 35.1 °F 54% 30.05 in 10.0 mi NNW 9.2 mph - N/A   Overcast
3:53 PM 51.1 °F - 34.0 °F 52% 30.05 in 10.0 mi NNW 13.8 mph 20.7 mph N/A   Overcast
4:53 PM 50.0 °F - 33.1 °F 52% 30.06 in 10.0 mi NNW 11.5 mph 20.7 mph N/A   Overcast
5:53 PM 50.0 °F - 32.0 °F 50% 30.07 in 10.0 mi NNW 8.1 mph - N/A   Overcast
6:53 PM 50.0 °F - 32.0 °F 50% 30.08 in 10.0 mi NNW 10.4 mph - N/A   Overcast
7:53 PM 50.0 °F - 30.9 °F 48% 30.09 in 10.0 mi NNW 11.5 mph 18.4 mph N/A   Overcast
8:53 PM 48.0 °F - 30.9 °F 52% 30.10 in 10.0 mi North 9.2 mph - N/A   Overcast
9:53 PM 46.9 °F - 30.9 °F 54% 30.10 in 10.0 mi North 10.4 mph - N/A   Overcast
10:53 PM 46.0 °F 40.6 °F 30.9 °F 56% 30.10 in 10.0 mi NNW 11.5 mph 19.6 mph N/A   Overcast
11:53 PM 45.0 °F 40.1 °F 30.9 °F 58% 30.09 in 10.0 mi NNW 9.2 mph - N/A   Mostly Cloudy